Lid_Strength_Index
10 12 13 13 10 12 12 12 13 14 11 13 14 13 12 12 14 13 11 9 6 6 4 3 3 3 3 2 2 2 2 2 2 2 2 2 2 1 0 0 0 -0 -0 1
11 13 12 12 12 12 11 12 13 12 12 13 13 15 14 13 13 12 12 12 9 6 5 5 4 3 3 3 2 2 2 2 2 2 1 1 1 0 -0 -1 -0 -0 -0 0
13 12 10 11 13 13 14 14 15 14 14 14 15 16 15 13 14 14 14 12 12 9 6 5 7 4 4 3 2 1 1 1 1 1 2 3 2 2 1 0 0 0 -0 0
11 10 11 12 13 13 15 12 13 14 15 18 15 19 15 13 12 15 13 14 13 13 10 8 8 8 5 3 2 2 1 1 1 1 2 2 2 2 1 1 0 -0 -1 -0
12 13 11 13 12 11 13 12 13 13 15 16 17 19 18 15 14 12 13 13 13 12 12 10 9 8 8 6 3 2 1 1 1 1 1 2 2 2 2 2 2 2 -0 -1
13 12 9 10 11 10 12 13 14 15 14 18 17 18 18 16 14 14 13 13 12 12 12 11 11 11 10 9 6 3 2 1 1 1 1 1 1 2 3 2 3 2 1 -0
15 15 14 12 13 12 12 13 18 19 19 20 19 18 15 15 14 13 12 13 13 12 12 13 12 11 10 9 8 6 3 2 1 1 1 1 1 2 2 2 2 2 1 1
17 18 15 14 14 14 12 13 17 22 22 20 19 19 16 14 12 13 13 13 14 14 14 13 13 11 9 9 8 8 7 3 2 1 1 1 1 2 2 2 3 2 2 1
17 17 15 14 13 11 14 15 13 17 23 22 19 18 15 14 14 14 14 14 13 13 13 13 13 11 9 8 7 7 8 8 7 4 3 2 2 2 3 4 3 4 4 5
14 17 15 14 12 13 13 11 16 16 22 24 20 20 17 16 15 14 14 13 12 12 12 12 12 11 9 8 7 7 8 8 7 8 8 6 4 3 3 4 6 6 7 7
14 15 16 13 15 15 15 14 15 15 17 20 22 18 16 14 13 13 13 13 13 12 13 12 11 11 10 9 8 8 8 8 7 7 7 6 5 5 5 6 7 8 9 10
14 15 17 16 14 14 13 14 13 16 19 19 19 17 14 14 14 14 14 13 13 12 12 12 11 11 11 9 9 9 9 9 9 9 7 6 7 6 6 8 9 9 11 11
13 16 21 17 15 15 15 15 13 13 16 18 20 17 12 11 11 13 13 12 12 12 12 12 12 12 10 10 10 10 10 10 10 10 9 9 8 7 8 10 11 11 11 12
9 15 16 17 17 15 16 15 15 14 17 15 17 14 12 14 14 14 13 13 12 12 12 12 12 12 11 11 11 11 11 11 11 11 10 10 10 9 10 11 11 12 13 13
11 16 16 16 15 14 15 14 14 15 13 15 14 15 12 13 12 12 13 13 12 12 11 11 11 12 11 11 11 11 11 12 12 12 11 12 12 11 12 12 13 14 13 14
13 17 15 18 15 15 17 14 13 13 13 14 13 15 11 13 13 13 12 12 12 11 11 11 11 11 11 11 11 12 11 12 12 12 12 13 12 13 13 13 14 14 14 13
14 17 20 18 15 15 16 15 14 14 13 13 15 12 12 13 13 12 11 11 11 11 11 11 10 10 10 10 11 12 12 13 12 13 13 13 13 14 13 14 14 14 14 14
13 15 17 23 18 19 14 12 11 12 11 11 12 13 12 11 10 10 10 10 11 11 10 10 9 9 9 9 10 11 12 13 13 13 13 14 13 14 14 14 14 15 15 15
14 14 18 17 21 16 14 15 15 14 13 11 12 12 12 12 13 12 11 10 10 10 9 8 8 8 9 10 10 11 12 13 13 13 13 14 13 14 15 15 15 16 16 16
14 12 13 19 18 20 16 12 12 11 15 11 12 12 12 12 14 11 10 10 10 9 9 9 9 10 10 10 11 12 13 13 13 13 13 14 14 14 15 15 16 17 16 17
20 20 15 18 17 19 14 13 11 16 15 12 12 11 12 12 10 11 11 11 11 10 10 10 10 11 11 12 12 13 13 13 13 13 14 15 15 15 15 16 17 17 17 17
17 17 18 24 17 18 14 14 13 11 13 12 12 13 12 12 12 12 12 11 11 12 11 12 12 13 13 13 12 13 13 13 14 14 15 15 15 15 16 16 17 17 17 17
18 14 17 14 15 13 14 13 12 12 12 12 12 12 12 12 13 13 12 12 13 13 13 14 14 14 14 13 12 12 13 14 14 14 15 15 16 16 16 17 18 18 17 17
16 15 14 14 15 14 13 12 12 12 12 12 12 13 13 13 12 13 13 13 13 15 14 16 15 15 16 15 14 14 14 14 14 15 16 16 16 17 17 17 17 17 17 17
14 13 16 16 15 13 12 12 12 12 12 12 13 13 12 12 13 13 14 16 14 15 16 16 16 16 16 16 16 15 15 14 14 15 16 16 16 17 18 18 17 17 17 15
14 14 12 13 12 12 11 12 12 13 13 12 12 13 14 13 13 15 17 17 17 17 18 17 18 17 18 17 17 16 14 14 15 16 17 16 17 17 18 19 20 17 16 15